Flag for Chile Weather past 2 weeks in Santiago, Chile

Now
48 °F

Cool.


Feels Like: 48 °F
Forecast: 44 / 63 °F
Wind: 2 mph from North

Location: Pudahuel

Current Time: Sep 2, 2014 at 6:02:21 AM

Latest Report: Sep 2, 2014 at 5:00 AM


Visibility: 1 mi

Pressure: 29.98 "Hg

Humidity: 94%

Dew point: 46 °F

Location of SantiagoLocation

Historic Weather in Santiago — Graph

°F

Santiago temperature yesterday

Maximum temperature yesterday: 55 °F (at 12:00 PM)
Minimum temperature yesterday: 50 °F (at 1:00 AM)
Average temperature yesterday: 52 °F

Past Weeks' High & Low Weather Summary

 TemperatureHumidityPressure
High84 °F (Aug 18, 3:00 PM)100% (Aug 19, 7:00 AM)30.27 "Hg (Aug 19, 7:00 AM)
Low32 °F (Aug 25, 6:00 AM)15% (Aug 26, 2:00 PM)29.83 "Hg (Aug 18, 4:00 PM)
Average51 °F75%30.01 "Hg
* Reported Aug 18 5:00 AM — Sep 2 5:00 AM, Santiago, Weather by CustomWeather, © 2014

Note: Actual official high and low records may vary slightly from our data, if they occured in-between our weather recording intervals... More about our weather records

Advertising

Santiago weather history for previous 24 hours

 ConditionsComfort  
Time TempWeatherWind HumidityBarometerVisibility
5:00 AM
Sep 2
48 °FCool.2 mph94%29.98 "Hg1 mi
4:00 AM50 °FFog.2 mph88%29.98 "Hg3 mi
3:00 AM50 °FPassing clouds.5 mph94%30.01 "HgN/A
2:00 AM52 °FPartly cloudy.5 mph88%30.01 "HgN/A
1:00 AM52 °FPartly cloudy.5 mph88%30.04 "HgN/A
12:00 AM52 °FPartly cloudy.5 mph88%30.04 "HgN/A
11:00 PM
Sep 1
52 °FPartly cloudy.7 mph88%30.04 "HgN/A
10:00 PM52 °FPartly cloudy.10 mph88%30.04 "HgN/A
9:00 PM52 °FPartly cloudy.9 mph88%30.04 "HgN/A
8:00 PM54 °FPartly cloudy.8 mph82%30.04 "HgN/A
7:00 PM54 °FPartly cloudy.9 mph82%30.01 "HgN/A
6:00 PM54 °FPartly cloudy.8 mph88%30.01 "HgN/A
5:00 PM55 °FBroken clouds.9 mph82%30.01 "HgN/A
4:00 PM55 °FRain showers. Broken clouds.5 mph77%30.01 "HgN/A
3:00 PM54 °FLots of rain. Mostly cloudy.6 mph88%30.01 "Hg4 mi
2:00 PM54 °FSprinkles. More clouds than sun.7 mph82%30.01 "HgN/A
1:00 PM54 °FRain showers. Broken clouds.8 mph82%30.01 "Hg5 mi
12:00 PM55 °FBroken clouds.7 mph72%30.01 "HgN/A
11:00 AM54 °FBroken clouds.8 mph77%29.98 "HgN/A
10:00 AM52 °FBroken clouds.8 mph82%29.98 "HgN/A
9:00 AM50 °FSprinkles. Broken clouds.12 mph88%29.95 "HgN/A
8:00 AM50 °FLight rain. More clouds than sun.13 mph88%29.92 "HgN/A
7:00 AM52 °FOvercast.14 mph77%29.89 "HgN/A
6:00 AM54 °FOvercast.5 mph72%29.86 "HgN/A
Weather by CustomWeather, © 2014

See weather overviewHow to use our weather pages